Weather History for KFAY - September, 2013

Change the Weather History Date:

Saturday, September 21, 2013

  Actual Average Record
Temperature  
Mean Temperature 75 °F 72 °F  
Max Temperature 84 °F 82 °F 99 °F (1931)
Min Temperature 66 °F 62 °F 44 °F (1962)
Degree Days  
Heating Degree Days 0 0  
Month to date heating degree days 0 0  
Since 1 July heating degree days 0 0  
Cooling Degree Days 10 8  
Month to date cooling degree days 243 214  
Year to date cooling degree days 1822 1854  
Growing Degree Days 24 (Base 50)    
Moisture  
Dew Point 66 °F    
Average Humidity 76    
Maximum Humidity 93    
Minimum Humidity 58    
Precipitation  
Precipitation 0.16 in 0.14 in 2.00 in (1943)
Month to date precipitation 0.45 3.12  
Year to date precipitation 35.01 34.55  
Sea Level Pressure  
Sea Level Pressure 29.85 in    
Wind  
Wind Speed 6 mph (SSE)    
Max Wind Speed 14 mph    
Max Gust Speed 20 mph    
Visibility 8 miles    
Events Rain    
T = Trace of Precipitation, MM = Missing Value Source: NWS Daily Summary

Daily Weather History Graph

Daily Weather History Graph

Search for Another Location

Airport or City:

Trip Planner

Search our weather history database for the weather conditions in past years. The results will help you decide how hot, cold, wet, or windy it might be!

Date:

Astronomy

Sep. 21, 2013 Rise Set
Actual Time 7:02 AM EDT 7:13 PM EDT
Civil Twilight 6:37 AM EDT 7:38 PM EDT
Nautical Twilight 6:08 AM EDT 8:08 PM EDT
Astronomical Twilight 5:38 AM EDT 8:37 PM EDT
Moon 8:30 PM EDT (9/21) 9:12 AM EDT (9/21)
Length of Visible Light 13h 00m
Length of Day
12h 10m
Waning Gibbous, 94% of the Moon is Illuminated
Sep 21
Waning Gibbous
Sep 26
Last Quarter
Oct 4
New
Oct 11
First Quarter
Oct 18
Full

Hourly Weather History & Observations

Time (EDT) Temp. Heat Index Dew Point Humidity Pressure Visibility Wind Dir Wind Speed Gust Speed Precip Events Conditions
12:53 AM 66.9 °F - 64.9 °F 93% 29.96 in 9.0 mi Calm Calm - N/A   Overcast
1:53 AM 66.9 °F - 64.9 °F 93% 29.96 in 8.0 mi Calm Calm - N/A   Overcast
2:46 AM 66.2 °F - 64.4 °F 94% 29.96 in 4.0 mi East 3.5 mph - 0.07 in Rain Light Rain
2:53 AM 66.9 °F - 64.9 °F 93% 29.94 in 5.0 mi East 4.6 mph - 0.07 in Rain Light Rain
3:02 AM 66.2 °F - 64.4 °F 94% 29.95 in 6.0 mi ESE 6.9 mph - 0.00 in Rain Light Rain
3:53 AM 66.9 °F - 64.0 °F 90% 29.92 in 9.0 mi East 5.8 mph - 0.00 in   Overcast
4:53 AM 66.9 °F - 64.0 °F 90% 29.91 in 8.0 mi ESE 4.6 mph - N/A   Overcast
5:53 AM 66.9 °F - 64.9 °F 93% 29.90 in 7.0 mi East 4.6 mph - N/A   Overcast
6:11 AM 66.2 °F - 64.4 °F 94% 29.91 in 6.0 mi ESE 4.6 mph - N/A   Overcast
6:53 AM 66.9 °F - 64.9 °F 93% 29.89 in 7.0 mi SE 5.8 mph - N/A   Overcast
7:08 AM 66.2 °F - 64.4 °F 94% 29.91 in 8.0 mi SE 5.8 mph - N/A   Overcast
7:38 AM 66.2 °F - 64.4 °F 94% 29.91 in 6.0 mi SSE 6.9 mph - N/A   Overcast
7:50 AM 66.2 °F - 64.4 °F 94% 29.91 in 7.0 mi SSE 4.6 mph - N/A   Overcast
7:53 AM 66.9 °F - 64.9 °F 93% 29.90 in 7.0 mi Calm Calm - N/A   Overcast
8:53 AM 68.0 °F - 66.0 °F 93% 29.90 in 8.0 mi SSE 5.8 mph - N/A   Overcast
9:40 AM 69.8 °F - 66.2 °F 88% 29.91 in 10.0 mi SSE 8.1 mph - N/A   Overcast
9:53 AM 71.1 °F - 66.9 °F 87% 29.89 in 10.0 mi SSE 10.4 mph - N/A   Overcast
10:53 AM 73.0 °F - 66.9 °F 81% 29.89 in 10.0 mi SSE 6.9 mph - N/A   Overcast
11:53 AM 77.0 °F - 66.9 °F 71% 29.86 in 10.0 mi South 9.2 mph - N/A   Overcast
12:53 PM 80.1 °F 82.3 °F 66.9 °F 64% 29.83 in 10.0 mi South 9.2 mph - N/A   Scattered Clouds
1:53 PM 82.0 °F 84.5 °F 66.9 °F 60% 29.80 in 10.0 mi SSW 10.4 mph - N/A   Scattered Clouds
2:53 PM 82.9 °F 85.4 °F 66.9 °F 58% 29.77 in 10.0 mi South 9.2 mph 16.1 mph N/A   Scattered Clouds
3:53 PM 82.9 °F 85.4 °F 66.9 °F 58% 29.75 in 10.0 mi South 6.9 mph - N/A   Mostly Cloudy
4:53 PM 82.0 °F 84.5 °F 66.9 °F 60% 29.74 in 10.0 mi SSE 5.8 mph - N/A   Clear
5:53 PM 80.1 °F 82.7 °F 68.0 °F 67% 29.74 in 10.0 mi South 5.8 mph - N/A   Overcast
6:53 PM 75.0 °F - 70.0 °F 84% 29.74 in 10.0 mi South 8.1 mph - 0.00 in   Mostly Cloudy
7:53 PM 73.0 °F - 70.0 °F 90% 29.72 in 10.0 mi SSE 8.1 mph - 0.01 in   Scattered Clouds
8:53 PM 73.0 °F - 70.0 °F 90% 29.72 in 10.0 mi SE 6.9 mph - 0.00 in   Mostly Cloudy
9:53 PM 73.0 °F - 70.0 °F 90% 29.73 in 10.0 mi SSE 6.9 mph - 0.00 in Rain Light Rain
10:53 PM 73.0 °F - 70.0 °F 90% 29.72 in 10.0 mi South 6.9 mph - 0.02 in Rain Light Rain
11:53 PM 73.0 °F - 71.1 °F 93% 29.72 in 8.0 mi South 4.6 mph - 0.02 in Rain Light Rain